[[{"header":{"parameterUnit":"m.s-1","parameterCategory":1,"la1":30.2991,"la2":30.254,"lo1":-89.0895,"lo2":-89.0444,"dy":0.0017,"dx":0.0017,"nx":28,"ny":28,"refTime":"2023-10-08T03:00:00:Z","depth":0,"parameterNumber":2,"parameterNumberName":"U-component_of_WINDS"},"data":[0,0,0,0,0,0,0,0,0,0,0,0,0,0,0,0,0,0,0,0,0,0,0,0,0,0,0,0,0,0,0,0,0,0,0,0,0,0,0,0,0,0,0,0,0,0,0,0,0,0,0,0,0,0,0,0,0,0,-0.6432,-0.6433,0,-0.6529,-0.653,-0.6531,-0.6587,-0.6588,-0.6588,-0.6588,-0.6686,-0.6688,-0.6691,0,0,0,0,0,0,0,0,0,0,0,0,0,-0.6296,-0.6298,-0.6432,-0.6433,-0.6434,-0.6528,-0.653,-0.6531,-0.6587,-0.6588,-0.6588,-0.6588,-0.6685,-0.6688,-0.6691,0,0,0,0,0,0,0,0,0,0,0,0,0,-0.637,-0.6299,-0.6432,-0.6474,-0.6478,-0.6528,-0.653,-0.6531,-0.6587,-0.6588,-0.6588,-0.6588,-0.6684,-0.6688,-0.6691,-0.6706,0,0,-0.6702,-0.6704,0,0,0,0,0,0,0,0,-0.6366,-0.6375,-0.6466,-0.6471,-0.6476,-0.6546,-0.6518,-0.659,-0.6587,-0.6546,-0.6588,-0.6588,-0.6639,-0.6647,-0.6664,-0.6711,-0.6715,-0.6703,-0.6705,-0.6706,-0.6707,0,0,0,0,0,0,0,-0.6361,-0.6371,-0.647,-0.6468,-0.6474,-0.6488,-0.6499,-0.6532,-0.6589,-0.6549,-0.6554,-0.6565,-0.6642,-0.666,-0.6667,-0.6717,-0.6703,-0.6706,-0.6708,-0.6709,-0.6782,-0.6782,0,0,0,0,0,0,-0.6349,-0.6366,-0.6467,-0.6473,-0.6421,-0.649,-0.6502,-0.6523,-0.6589,-0.66,-0.6564,-0.6567,-0.6654,-0.6662,-0.667,-0.6693,-0.6706,-0.671,-0.6712,-0.6783,-0.6782,-0.6782,0,0,0,0,0,0,-0.6346,-0.6357,-0.6463,-0.6421,-0.6436,-0.6492,-0.6515,-0.6525,-0.6544,-0.66,-0.6611,-0.6572,-0.6655,-0.6665,-0.6697,-0.6697,-0.6711,-0.6715,-0.6783,-0.6782,-0.6782,-0.6738,0,0,0,0,0,0,-0.6342,-0.6356,-0.6362,-0.6421,-0.6438,-0.6489,-0.6515,-0.6527,-0.655,-0.6554,-0.6611,-0.662,-0.6656,-0.6692,-0.6701,-0.6702,-0.6717,-0.6783,-0.6783,-0.6782,-0.674,-0.6736,-0.6733,0,0,0,0,0,-0.6336,-0.6345,-0.6362,-0.6374,-0.6447,-0.6488,-0.6498,-0.6539,-0.6549,-0.6556,-0.6593,-0.6619,-0.6696,-0.6694,-0.6705,-0.6708,-0.6783,-0.6783,-0.6782,-0.6741,-0.6737,-0.6733,0,0,0,0,0,0,-0.6285,-0.6354,-0.6373,-0.6401,-0.6439,-0.6498,-0.6508,-0.6533,-0.6568,-0.657,-0.6619,-0.6631,-0.6659,-0.6687,-0.6684,-0.6727,-0.6742,-0.6744,-0.6707,-0.6704,-0.67,-0.6693,-0.672,0,0,0,0,0,-0.6277,-0.6305,-0.6364,-0.6383,-0.6401,-0.6451,-0.6471,-0.6499,-0.6539,-0.6555,-0.6594,-0.6632,-0.6666,-0.6686,-0.672,-0.6744,-0.6757,-0.6751,-0.6748,-0.6745,-0.6746,-0.6762,-0.676,-0.6781,-0.6781,-0.6781,0,0,-0.626,-0.6301,-0.6316,-0.6373,-0.6406,-0.6434,-0.6464,-0.6492,-0.6514,-0.656,-0.6593,-0.6622,-0.6668,-0.6697,-0.6711,-0.6721,-0.6743,-0.6744,-0.6741,-0.6744,-0.6761,-0.6759,-0.6757,-0.678,-0.678,-0.678,0,0,-0.6244,-0.6278,-0.6298,-0.633,-0.6379,-0.6412,-0.6417,-0.6473,-0.6495,-0.6529,-0.6564,-0.659,-0.6646,-0.6678,-0.6701,-0.6698,-0.6723,-0.6708,-0.669,-0.6705,-0.6704,-0.6702,-0.6702,-0.6701,-0.6708,-0.6708,-0.6708,0,-0.6217,-0.6262,-0.6305,-0.6332,-0.6357,-0.64,-0.6421,-0.645,-0.6506,-0.6522,-0.6532,-0.6604,-0.6638,-0.6675,-0.6674,-0.6691,-0.6698,-0.6701,-0.67,-0.67,-0.6699,-0.6699,-0.6699,-0.6706,-0.6706,-0.6706,-0.6707,0,-0.6226,-0.6256,-0.6267,-0.6321,-0.6347,-0.637,-0.6418,-0.6439,-0.6465,-0.6497,-0.6532,-0.6574,-0.6617,-0.6628,-0.6654,-0.6669,-0.6673,-0.6691,-0.6708,-0.6694,-0.6695,-0.6695,-0.6703,-0.6704,-0.6704,-0.6705,0,0,-0.618,-0.6259,-0.6262,-0.6288,-0.6345,-0.6369,-0.6395,-0.6438,-0.6455,-0.6493,-0.6516,-0.6562,-0.658,-0.6606,-0.6635,-0.6648,-0.6644,-0.6665,-0.6667,-0.666,-0.6664,-0.6651,-0.665,-0.6661,-0.6661,-0.6662,-0.6661,0,-0.6173,-0.6222,-0.6262,-0.6296,-0.6324,-0.6366,-0.6389,-0.6427,-0.6458,-0.6487,-0.6521,-0.6554,-0.6574,-0.659,-0.6605,-0.6641,-0.6646,-0.6642,-0.6683,-0.6684,-0.6671,-0.665,-0.6636,-0.6633,-0.6661,-0.6661,-0.6661,0,-0.6171,-0.6208,-0.6244,-0.63,-0.6313,-0.6333,-0.6376,-0.6403,-0.6446,-0.6468,-0.6498,-0.6529,-0.6559,-0.6573,-0.6614,-0.6611,-0.663,-0.6651,-0.6652,-0.6657,-0.6672,-0.6655,-0.6633,-0.6632,-0.6662,-0.6662,-0.6662,0,-0.6134,-0.6193,-0.6223,-0.6243,-0.6308,-0.6321,-0.6349,-0.6393,-0.6416,-0.6454,-0.6469,-0.6509,-0.6531,-0.6562,-0.6603,-0.6609,-0.664,-0.6658,-0.666,-0.6659,-0.6664,-0.6663,-0.6644,-0.6676,-0.6676,-0.6676,-0.6676,0,-0.6122,-0.6142,-0.6207,-0.6225,-0.625,-0.6296,-0.6319,-0.6351,-0.639,-0.6415,-0.6454,-0.6477,-0.653,-0.6559,-0.6592,-0.6621,-0.6631,-0.665,-0.6658,-0.6646,-0.6644,-0.666,-0.6661,-0.6676,-0.6676,-0.6676,-0.6676,0,-0.6084,-0.6128,-0.6164,-0.6223,-0.6238,-0.6254,-0.6304,-0.6324,-0.6357,-0.6389,-0.6399,-0.6452,-0.6488,-0.6533,-0.6583,-0.6605,-0.6632,-0.6645,-0.6617,-0.6622,-0.6622,-0.6621,-0.6612,-0.6614,-0.6644,-0.6643,-0.6643,0,-0.6074,-0.6091,-0.6152,-0.6172,-0.6199,-0.623,-0.6254,-0.6301,-0.6325,-0.6376,-0.6389,-0.6429,-0.6463,-0.652,-0.6563,-0.6602,-0.6616,-0.661,-0.6622,-0.661,-0.6617,-0.6615,-0.6617,-0.6607,-0.6606,-0.6606,-0.6606,0,-0.605,-0.6072,-0.6105,-0.6146,-0.6174,-0.6209,-0.6245,-0.6259,-0.6314,-0.6338,-0.6377,-0.6403,-0.6455,-0.6494,-0.6539,-0.6568,-0.6596,-0.6602,-0.6604,-0.6592,-0.6576,-0.6585,-0.6609,-0.6602,-0.6602,-0.6602,-0.6603,-0.6603,-0.6027,-0.6044,-0.609,-0.6126,-0.6159,-0.6192,-0.6213,-0.625,-0.6283,-0.6329,-0.6355,-0.6392,-0.6437,-0.65,-0.6528,-0.6558,-0.6568,-0.6571,-0.6572,-0.6573,-0.6569,-0.6571,-0.6566,-0.6566,-0.6567,-0.6567,-0.6567,0,-0.6005,-0.6037,-0.607,-0.612,-0.6149,-0.6173,-0.6215,-0.6237,-0.627,-0.6309,-0.6342,-0.6386,-0.6425,-0.6471,-0.6512,-0.6528,-0.6542,-0.6537,-0.6536,-0.6543,-0.6558,-0.6552,-0.6525,-0.6525,-0.6525,-0.6525,-0.6525,-0.6525,-0.5998,-0.6029,-0.6055,-0.6103,-0.6135,-0.6172,-0.6194,-0.6225,-0.6257,-0.6305,-0.6337,-0.6367,-0.6409,-0.6454,-0.649,-0.6503,-0.6517,-0.6508,-0.6525,-0.6538,-0.6542,-0.6545,-0.6539,-0.6511,-0.6511,-0.6507,-0.6507,-0.6507]},{"header":{"parameterUnit":"m.s-1","parameterCategory":1,"la1":30.2991,"la2":30.254,"lo1":-89.0895,"lo2":-89.0444,"dy":0.0017,"dx":0.0017,"nx":28,"ny":28,"refTime":"2023-10-08T03:00:00:Z","depth":0,"parameterNumber":3,"parameterNumberName":"V-component_of_WINDS"},"data":[0,0,0,0,0,0,0,0,0,0,0,0,0,0,0,0,0,0,0,0,0,0,0,0,0,0,0,0,0,0,0,0,0,0,0,0,0,0,0,0,0,0,0,0,0,0,0,0,0,0,0,0,0,0,0,0,0,0,0.6458,0.6458,0,0.6438,0.6438,0.6438,0.6439,0.6439,0.6439,0.644,0.6415,0.6414,0.6413,0,0,0,0,0,0,0,0,0,0,0,0,0,0.6495,0.6494,0.6458,0.6458,0.6458,0.6438,0.6438,0.6438,0.6439,0.6439,0.644,0.644,0.6415,0.6414,0.6413,0,0,0,0,0,0,0,0,0,0,0,0,0,0.6477,0.6494,0.6458,0.6456,0.6456,0.6438,0.6438,0.6438,0.6439,0.6439,0.644,0.644,0.6416,0.6414,0.6413,0.6395,0,0,0.6409,0.6408,0,0,0,0,0,0,0,0,0.6478,0.6476,0.6457,0.6456,0.6456,0.6442,0.6442,0.6423,0.6439,0.6445,0.644,0.644,0.6423,0.6421,0.6416,0.6394,0.6393,0.6409,0.6408,0.6407,0.6407,0,0,0,0,0,0,0,0.6479,0.6477,0.645,0.6457,0.6456,0.6455,0.6453,0.6438,0.6432,0.6445,0.6445,0.6442,0.6423,0.6418,0.6416,0.6393,0.6409,0.6407,0.6406,0.6406,0.6355,0.6354,0,0,0,0,0,0,0.6482,0.6478,0.6451,0.645,0.6469,0.6454,0.6452,0.6446,0.6432,0.643,0.6442,0.6443,0.642,0.6417,0.6415,0.6393,0.6407,0.6406,0.6405,0.6355,0.6355,0.6354,0,0,0,0,0,0,0.6482,0.6479,0.6452,0.6464,0.646,0.6453,0.6446,0.6445,0.644,0.643,0.6429,0.6438,0.642,0.6417,0.64,0.6393,0.6405,0.6404,0.6356,0.6355,0.6354,0.635,0,0,0,0,0,0,0.6483,0.648,0.6473,0.6464,0.646,0.6439,0.6446,0.6444,0.6438,0.6438,0.6426,0.6424,0.642,0.6402,0.6399,0.6391,0.6403,0.6356,0.6355,0.6355,0.6351,0.6349,0.6348,0,0,0,0,0,0.6485,0.6472,0.6473,0.647,0.6452,0.6438,0.6436,0.6433,0.6437,0.643,0.6424,0.6425,0.6394,0.6401,0.6397,0.6388,0.6357,0.6356,0.6355,0.6352,0.635,0.6348,0,0,0,0,0,0,0.648,0.6471,0.6472,0.6456,0.6448,0.6438,0.643,0.643,0.642,0.6421,0.6416,0.6413,0.6397,0.6391,0.6398,0.637,0.6376,0.6374,0.6375,0.6373,0.6371,0.6373,0.6402,0,0,0,0,0,0.6477,0.6468,0.646,0.6446,0.6443,0.6437,0.6431,0.6429,0.642,0.6416,0.6409,0.6399,0.6388,0.638,0.6369,0.635,0.6347,0.6342,0.6341,0.6339,0.6338,0.6327,0.6325,0.635,0.635,0.635,0,0,0.647,0.6465,0.6459,0.6445,0.6439,0.6428,0.6434,0.6422,0.6414,0.6414,0.6399,0.6393,0.6382,0.6365,0.6356,0.6359,0.633,0.6338,0.6337,0.6336,0.6326,0.6324,0.6322,0.6349,0.635,0.635,0,0,0.6454,0.6449,0.6437,0.6431,0.6422,0.6419,0.6416,0.6406,0.6403,0.6388,0.6388,0.6377,0.6357,0.6349,0.6343,0.6324,0.6324,0.632,0.6312,0.6302,0.63,0.6299,0.6292,0.6289,0.6318,0.6318,0.6318,0,0.6447,0.6432,0.6431,0.642,0.6413,0.6414,0.6402,0.6396,0.6383,0.6378,0.6382,0.6357,0.635,0.6331,0.6326,0.6321,0.6317,0.6321,0.6301,0.6299,0.6297,0.6291,0.6288,0.6318,0.6318,0.6318,0.6318,0,0.6424,0.6414,0.6405,0.6395,0.6388,0.6376,0.6372,0.6365,0.6364,0.636,0.6344,0.6335,0.6322,0.6317,0.6316,0.6298,0.63,0.6302,0.6308,0.6295,0.6289,0.6286,0.6318,0.6318,0.6318,0.6318,0,0,0.6403,0.6392,0.6389,0.6385,0.6375,0.6367,0.6355,0.6344,0.6338,0.6329,0.6318,0.6302,0.6304,0.6296,0.6294,0.6285,0.6271,0.6288,0.6288,0.6285,0.6251,0.6249,0.6247,0.6271,0.6271,0.627,0.6252,0,0.6385,0.6366,0.6365,0.6347,0.6337,0.6338,0.6328,0.632,0.6316,0.6306,0.6301,0.629,0.6294,0.6289,0.6281,0.6275,0.6264,0.6276,0.626,0.626,0.6263,0.6243,0.6241,0.6225,0.6249,0.6249,0.6249,0,0.6362,0.6354,0.6336,0.6328,0.6324,0.6315,0.6305,0.6296,0.6287,0.6285,0.6277,0.6276,0.6263,0.6269,0.6251,0.6259,0.6253,0.6249,0.6248,0.6246,0.6253,0.6241,0.6219,0.6217,0.6245,0.6245,0.6245,0,0.6349,0.6333,0.6321,0.6317,0.6307,0.6301,0.6296,0.6288,0.6282,0.6272,0.6268,0.6257,0.6251,0.6241,0.6237,0.6242,0.6219,0.6225,0.6216,0.6216,0.621,0.6211,0.6187,0.6207,0.6207,0.6207,0.6207,0,0.6329,0.6318,0.6315,0.6307,0.6294,0.6292,0.6279,0.6275,0.6267,0.6258,0.6258,0.6248,0.6243,0.6233,0.6229,0.6215,0.6212,0.6209,0.6208,0.6209,0.6209,0.6204,0.6205,0.6206,0.6206,0.6206,0.6206,0,0.6312,0.631,0.6296,0.6289,0.6286,0.6277,0.6271,0.6262,0.6259,0.6247,0.6244,0.6238,0.6226,0.6221,0.6205,0.6203,0.6186,0.6186,0.6189,0.6189,0.618,0.6181,0.6153,0.6149,0.6171,0.617,0.617,0,0.63,0.6291,0.6284,0.6278,0.6274,0.6265,0.6259,0.6256,0.625,0.6239,0.6232,0.6221,0.6211,0.6192,0.6185,0.6174,0.6173,0.6164,0.6171,0.6173,0.6173,0.6174,0.6173,0.6163,0.6163,0.6162,0.6162,0,0.6278,0.6278,0.627,0.6261,0.6254,0.6247,0.624,0.6235,0.6231,0.6224,0.6212,0.6205,0.6191,0.6179,0.6167,0.6161,0.6161,0.616,0.6157,0.6158,0.6161,0.6159,0.6186,0.6161,0.6161,0.6161,0.6161,0.6161,0.6263,0.6256,0.625,0.6241,0.6236,0.6229,0.6221,0.6217,0.6208,0.6197,0.6196,0.6184,0.6175,0.6159,0.6153,0.6143,0.6145,0.6141,0.614,0.6139,0.6139,0.6163,0.6141,0.6141,0.6141,0.6141,0.6141,0,0.6242,0.6238,0.623,0.6221,0.6214,0.6216,0.6208,0.6201,0.6191,0.6184,0.6175,0.6162,0.6151,0.6144,0.6132,0.6125,0.6125,0.6122,0.6122,0.6121,0.6137,0.6141,0.6123,0.6123,0.6123,0.6123,0.6123,0.6123,0.623,0.6218,0.6217,0.6202,0.6198,0.6187,0.6182,0.6176,0.617,0.6156,0.6148,0.6144,0.6136,0.6124,0.6114,0.6112,0.6107,0.6105,0.6103,0.6118,0.612,0.6122,0.6125,0.6104,0.6104,0.6088,0.6088,0.6087]}]]